User: anonymous
Location: Melbourne
(37.8170°S, 144.9670°E)
Time: 09:35:41
(UTC+10:00)
Language:

Cosmos 1656 Rocket - Orbit

View from above orbital plane
View from above orbital plane
View from above satellite
View from above satellite

Ground track
Ground track

The orbit data is extracted from the following two-line orbital elements,

1 15772U 85042D   14233.81916259 -.00000155  00000-0 -49070-4 0  4492
2 15772 071.1115 349.5577 0036227 208.2663 308.0069 14.21027882515065
Epoch (UTC): 21 August 2014 19:39:35
Eccentricity: 0.0036227
inclination: 71.1115°
perigee height: 796 km
apogee height: 848 km
right ascension of ascending node: 349.5577°
argument of perigee: 208.2663°
revolutions per day: 14.21027882
mean anomaly at epoch: 308.0069°
orbit number at epoch: 51506

The dashed part of the orbit path shows where the satellite is in the earth's shadow,  

DLR